FENGYUN 1C DEB

Satellite information

Favourite Embed

Satellite Type and Status

DEBRISIN ORBIT

Key statistics

Satellite FENGYUN 1C DEB at a glance.

Uptime

9715

Days in orbit

Revolutions

≈ 14.5

Per day

Orbit

SSO

Sun Synchronous Orbit

Inclination

98.7

Latest

Satellite identification and parameters

Extended collection of information and parameters for FENGYUN 1C DEB.

Object identification

Identified? True

Debris? True

Object name: FENGYUN 1C DEB

International designator: 1999-025AGK

Object number (NORAD): 30472

Object ID (CCSDS): 30472

Country: PEOPLES REPUBLIC OF CHINA (PRC)

Current information (Y/N): Y

RCS size: SMALL

Orbital parameters

Period: 99.052 minutes

Inclination: 98.6512 deg

SMA: 7091.459 km

Apoapsis: 740.532 km

Periapsis: 686.116 km

RAAN: 87.3733 deg

Eccentricy: 0.00383669

Argument of periapsis: 80.9284 deg

Mean anomaly: 338.1206 deg

Mean motion: 14.53782285 rev/day

Mean motion (dot): 0.00015617 rev/day2

B* drag term: 0.0036897604 1/REarth

Two-line elements (TLE)

Creation date: Dec. 12, 2025, 10:14 a.m.

Reference frame: TEME

Reference center: EARTH

Epoch: Dec. 12, 2025, 6:44 a.m. UTC

TLE line 0: 0 FENGYUN 1C DEB

TLE line 1: 1 30472U 99025AGK 25346.28064322 .00015617 00000-0 36898-2 0 9994

TLE line 2: 2 30472 98.6512 87.3733 0038367 80.9284 338.1206 14.53782285980340

Live tracking on map

Real-time ground track for satellite FENGYUN 1C DEB.

In-orbit conjunctions

A list of the most updated potential collisions computed for object FENGYUN 1C DEB.

Target Orbit TCA Probability of collision Miss distance Type
CZ-6A DEB LEO 2025-02-11 22:06:17 0.0003038313 644.0 (m) DEBRIS
COSMOS 2251 DEB LEO 2025-01-19 06:17:31 0.000289295 128.0 (m) DEBRIS
FENGYUN 1C DEB SSO 2025-01-04 15:56:54 0.000157993 86.0 (m) DEBRIS
CZ-6A DEB LEO 2024-12-11 20:16:35 0.000247193 330.0 (m) DEBRIS
SL-8 DEB LEO 2024-11-14 11:14:59 0.0005603874 421.0 (m) DEBRIS

Associated space launch

Chinese polar orbiting meteorological satellite

FENGYUN 1C DEB was lifted into orbit during the mission ‘Long March 4B | Feng Yun 1C’, on board a Long March 4B space rocket.

The launch took place on May 10, 1999, 1:33 a.m. from Launch Complex 7.

For more information about the launch, click the button.

Launch to space Long March 4B | Feng Yun 1C
Long March 4B | Feng Yun 1C

Agency: N/A

Status: Launch Successful

Launch date: May 10, 1999, 1:33 a.m. UTC

Rocket: Long March 4B

Launch pad: Launch Complex 7

Location: Taiyuan Satellite Launch Center, People's Republic of China

...

Latest news about this satellite

There are no fresh news available about this satellite. Check back as we update our databases every day.


Newsletter sign-up

Weekly statistics, charts and insights to help you stay on top of the space industry.